Time,TemperatureF,DewpointF,PressureIn,WindDirection,WindDirectionDegrees,WindSpeedMPH,WindSpeedGustMPH,Humidity,HourlyPrecipIn,Conditions,Clouds,dailyrainin,SolarRadiationWatts/m^2,SoftwareType,DateUTC
2013-05-20 00:12:00,42.0,17.0,-100.00,SE,138,0.0,6.0,36,0.00,,,0.00,0.000000,,2013-05-20 07:12:00,
2013-05-20 00:21:00,42.0,17.0,-100.00,SE,138,0.0,6.0,36,0.00,,,0.00,0.000000,,2013-05-20 07:21:00,
2013-05-20 00:32:00,42.0,17.0,-100.00,SE,138,0.0,6.0,36,0.00,,,0.00,0.000000,,2013-05-20 07:32:00,
2013-05-20 00:41:00,42.0,17.0,-100.00,SE,138,0.0,6.0,36,0.00,,,0.00,0.000000,,2013-05-20 07:41:00,
2013-05-20 01:11:00,39.0,18.0,-100.00,SE,143,0.0,0.0,42,0.00,,,0.00,0.000000,,2013-05-20 08:11:00,
2013-05-20 01:21:00,39.0,18.0,-100.00,SE,143,0.0,0.0,42,0.00,,,0.00,0.000000,,2013-05-20 08:21:00,
2013-05-20 01:31:00,39.0,18.0,-100.00,SE,143,0.0,0.0,42,0.00,,,0.00,0.000000,,2013-05-20 08:31:00,
2013-05-20 01:41:00,39.0,18.0,-100.00,SE,143,0.0,0.0,42,0.00,,,0.00,0.000000,,2013-05-20 08:41:00,
2013-05-20 02:12:00,37.0,18.0,-100.00,SE,139,0.0,3.0,46,0.00,,,0.00,0.000000,,2013-05-20 09:12:00,
2013-05-20 02:21:00,37.0,18.0,-100.00,SE,139,0.0,3.0,46,0.00,,,0.00,0.000000,,2013-05-20 09:21:00,
2013-05-20 02:32:00,37.0,18.0,-100.00,SE,139,0.0,3.0,46,0.00,,,0.00,0.000000,,2013-05-20 09:32:00,
2013-05-20 03:12:00,35.0,18.0,-100.00,SE,135,0.0,0.0,50,-99.99,,,0.00,0.000000,,2013-05-20 10:12:00,
2013-05-20 03:22:00,35.0,18.0,-100.00,SE,135,0.0,0.0,50,-99.99,,,0.00,0.000000,,2013-05-20 10:22:00,
2013-05-20 03:32:00,35.0,18.0,-100.00,SE,135,0.0,0.0,50,-99.99,,,0.00,0.000000,,2013-05-20 10:32:00,
2013-05-20 04:12:00,32.0,17.0,-100.00,SE,138,0.0,3.0,54,-99.99,,,0.00,0.000000,,2013-05-20 11:12:00,
2013-05-20 04:21:00,32.0,17.0,-100.00,SE,138,0.0,3.0,54,-99.99,,,0.00,0.000000,,2013-05-20 11:21:00,
2013-05-20 05:11:00,32.0,18.0,-100.00,SE,133,0.0,0.0,55,0.00,,,0.00,0.000000,,2013-05-20 12:11:00,
2013-05-20 05:21:00,32.0,18.0,-100.00,SE,133,0.0,0.0,55,0.00,,,0.00,0.000000,,2013-05-20 12:21:00,
2013-05-20 05:31:00,32.0,18.0,-100.00,SE,133,0.0,0.0,55,0.00,,,0.00,0.000000,,2013-05-20 12:31:00,
2013-05-20 06:11:00,32.0,19.0,-100.00,SE,146,0.0,2.0,59,0.00,,,0.00,0.000000,,2013-05-20 13:11:00,
2013-05-20 06:22:00,32.0,19.0,-100.00,SE,146,0.0,2.0,59,0.00,,,0.00,0.000000,,2013-05-20 13:22:00,
2013-05-20 06:31:00,32.0,19.0,-100.00,SE,146,0.0,2.0,59,0.00,,,0.00,0.000000,,2013-05-20 13:31:00,
2013-05-20 06:41:00,32.0,19.0,-100.00,SE,146,0.0,2.0,59,0.00,,,0.00,0.000000,,2013-05-20 13:41:00,
2013-05-20 07:11:00,33.0,21.0,-100.00,SE,141,0.0,0.0,60,0.00,,,0.00,14.000000,,2013-05-20 14:11:00,
2013-05-20 07:22:00,33.0,21.0,-100.00,SE,141,0.0,0.0,60,0.00,,,0.00,14.000000,,2013-05-20 14:22:00,
2013-05-20 07:31:00,33.0,21.0,-100.00,SE,141,0.0,0.0,60,0.00,,,0.00,14.000000,,2013-05-20 14:31:00,
2013-05-20 08:11:00,41.0,23.0,-100.00,SSE,152,0.0,0.0,48,-99.99,,,0.00,35.000000,,2013-05-20 15:11:00,
2013-05-20 08:21:00,41.0,23.0,-100.00,SSE,152,0.0,0.0,48,-99.99,,,0.00,35.000000,,2013-05-20 15:21:00,
2013-05-20 08:33:00,41.0,23.0,-100.00,SSE,152,0.0,0.0,48,-99.99,,,0.00,35.000000,,2013-05-20 15:33:00,
2013-05-20 09:12:00,53.0,22.0,-100.00,ENE,74,1.0,5.0,30,-99.99,,,0.00,258.000000,,2013-05-20 16:12:00,
2013-05-20 09:22:00,53.0,22.0,-100.00,ENE,74,1.0,5.0,30,-99.99,,,0.00,258.000000,,2013-05-20 16:22:00,
2013-05-20 09:33:00,53.0,22.0,-100.00,ENE,74,1.0,5.0,30,-99.99,,,0.00,258.000000,,2013-05-20 16:33:00,
2013-05-20 09:42:00,53.0,22.0,-100.00,ENE,74,1.0,5.0,30,-99.99,,,0.00,258.000000,,2013-05-20 16:42:00,
2013-05-20 10:12:00,60.0,22.0,-100.00,WSW,257,1.0,7.0,23,0.00,,,0.00,732.000000,,2013-05-20 17:12:00,
2013-05-20 10:22:00,60.0,22.0,-100.00,WSW,257,1.0,7.0,23,0.00,,,0.00,732.000000,,2013-05-20 17:22:00,
2013-05-20 10:32:00,60.0,22.0,-100.00,WSW,257,1.0,7.0,23,0.00,,,0.00,732.000000,,2013-05-20 17:32:00,
2013-05-20 10:45:00,60.0,22.0,-100.00,WSW,257,1.0,7.0,23,0.00,,,0.00,732.000000,,2013-05-20 17:45:00,
2013-05-20 11:12:00,63.0,21.0,-100.00,NE,55,2.0,10.0,20,0.00,,,0.00,915.000000,,2013-05-20 18:12:00,
2013-05-20 11:23:00,63.0,21.0,-100.00,NE,55,2.0,10.0,20,0.00,,,0.00,915.000000,,2013-05-20 18:23:00,
2013-05-20 11:32:00,63.0,21.0,-100.00,NE,55,2.0,10.0,20,0.00,,,0.00,915.000000,,2013-05-20 18:32:00,
2013-05-20 11:41:00,63.0,21.0,-100.00,NE,55,2.0,10.0,20,0.00,,,0.00,915.000000,,2013-05-20 18:41:00,
2013-05-20 12:11:00,66.0,21.0,-100.00,NE,47,3.0,10.0,18,0.00,,,0.00,1048.000000,,2013-05-20 19:11:00,
2013-05-20 12:21:00,66.0,21.0,-100.00,NE,47,3.0,10.0,18,0.00,,,0.00,1048.000000,,2013-05-20 19:21:00,
2013-05-20 12:32:00,66.0,21.0,-100.00,NE,47,3.0,10.0,18,0.00,,,0.00,1048.000000,,2013-05-20 19:32:00,
2013-05-20 12:41:00,66.0,21.0,-100.00,NE,47,3.0,10.0,18,0.00,,,0.00,1048.000000,,2013-05-20 19:41:00,
2013-05-20 13:12:00,68.0,20.0,-100.00,NW,307,2.0,8.0,16,0.00,,,0.00,1114.000000,,2013-05-20 20:12:00,
2013-05-20 13:21:00,68.0,20.0,-100.00,NW,307,2.0,8.0,16,0.00,,,0.00,1114.000000,,2013-05-20 20:21:00,
2013-05-20 13:32:00,68.0,20.0,-100.00,NW,307,2.0,8.0,16,0.00,,,0.00,1114.000000,,2013-05-20 20:32:00,
2013-05-20 13:42:00,68.0,20.0,-100.00,NW,307,2.0,8.0,16,0.00,,,0.00,1114.000000,,2013-05-20 20:42:00,
2013-05-20 14:11:00,69.0,21.0,-100.00,NNE,31,4.0,10.0,16,0.00,,,0.00,1113.000000,,2013-05-20 21:11:00,
2013-05-20 14:21:00,69.0,21.0,-100.00,NNE,31,4.0,10.0,16,0.00,,,0.00,1113.000000,,2013-05-20 21:21:00,
2013-05-20 14:32:00,69.0,21.0,-100.00,NNE,31,4.0,10.0,16,0.00,,,0.00,1113.000000,,2013-05-20 21:32:00,
2013-05-20 14:43:00,69.0,21.0,-100.00,NNE,31,4.0,10.0,16,0.00,,,0.00,1113.000000,,2013-05-20 21:43:00,
2013-05-20 15:12:00,74.0,23.0,-100.00,ENE,73,3.0,11.0,15,0.00,,,0.00,1065.000000,,2013-05-20 22:12:00,
2013-05-20 15:23:00,74.0,23.0,-100.00,ENE,73,3.0,11.0,15,0.00,,,0.00,1065.000000,,2013-05-20 22:23:00,
2013-05-20 15:33:00,74.0,23.0,-100.00,ENE,73,3.0,11.0,15,0.00,,,0.00,1065.000000,,2013-05-20 22:33:00,
2013-05-20 15:42:00,74.0,23.0,-100.00,ENE,73,3.0,11.0,15,0.00,,,0.00,1065.000000,,2013-05-20 22:42:00,
2013-05-20 16:12:00,75.0,27.0,-100.00,NNE,15,5.0,14.0,17,0.00,,,0.00,951.000000,,2013-05-20 23:12:00,
2013-05-20 16:22:00,75.0,27.0,-100.00,NNE,15,5.0,14.0,17,0.00,,,0.00,951.000000,,2013-05-20 23:22:00,
2013-05-20 16:32:00,75.0,27.0,-100.00,NNE,15,5.0,14.0,17,0.00,,,0.00,951.000000,,2013-05-20 23:32:00,
2013-05-20 16:42:00,75.0,27.0,-100.00,NNE,15,5.0,14.0,17,0.00,,,0.00,951.000000,,2013-05-20 23:42:00,
2013-05-20 17:11:00,76.0,25.0,-100.00,NNW,340,4.0,11.0,15,0.00,,,0.00,789.000000,,2013-05-21 00:11:00,
2013-05-20 17:21:00,76.0,25.0,-100.00,NNW,340,4.0,11.0,15,0.00,,,0.00,789.000000,,2013-05-21 00:21:00,
2013-05-20 17:31:00,76.0,25.0,-100.00,NNW,340,4.0,11.0,15,0.00,,,0.00,789.000000,,2013-05-21 00:31:00,
2013-05-20 17:41:00,76.0,25.0,-100.00,NNW,340,4.0,11.0,15,0.00,,,0.00,789.000000,,2013-05-21 00:41:00,
2013-05-20 18:11:00,76.0,27.0,-100.00,SW,217,3.0,8.0,16,0.00,,,0.00,585.000000,,2013-05-21 01:11:00,
2013-05-20 18:21:00,76.0,27.0,-100.00,SW,217,3.0,8.0,16,0.00,,,0.00,585.000000,,2013-05-21 01:21:00,
2013-05-20 18:32:00,76.0,27.0,-100.00,SW,217,3.0,8.0,16,0.00,,,0.00,585.000000,,2013-05-21 01:32:00,
2013-05-20 18:42:00,76.0,27.0,-100.00,SW,217,3.0,8.0,16,0.00,,,0.00,585.000000,,2013-05-21 01:42:00,
2013-05-20 19:11:00,72.0,30.0,-100.00,SW,216,5.0,14.0,21,0.00,,,0.00,350.000000,,2013-05-21 02:11:00,
2013-05-20 19:21:00,72.0,30.0,-100.00,SW,216,5.0,14.0,21,0.00,,,0.00,350.000000,,2013-05-21 02:21:00,
2013-05-20 19:32:00,72.0,30.0,-100.00,SW,216,5.0,14.0,21,0.00,,,0.00,350.000000,,2013-05-21 02:32:00,
2013-05-20 19:41:00,72.0,30.0,-100.00,SW,216,5.0,14.0,21,0.00,,,0.00,350.000000,,2013-05-21 02:41:00,
2013-05-20 20:11:00,66.0,30.0,-100.00,SSW,201,6.0,14.0,26,0.00,,,0.00,98.000000,,2013-05-21 03:11:00,
2013-05-20 20:21:00,66.0,30.0,-100.00,SSW,201,6.0,14.0,26,0.00,,,0.00,98.000000,,2013-05-21 03:21:00,
2013-05-20 20:33:00,66.0,30.0,-100.00,SSW,201,6.0,14.0,26,0.00,,,0.00,98.000000,,2013-05-21 03:33:00,
2013-05-20 20:42:00,66.0,30.0,-100.00,SSW,201,6.0,14.0,26,0.00,,,0.00,98.000000,,2013-05-21 03:42:00,
2013-05-20 21:12:00,60.0,27.0,-100.00,South,186,5.0,13.0,28,0.00,,,0.00,4.000000,,2013-05-21 04:12:00,
2013-05-20 21:23:00,60.0,27.0,-100.00,South,186,5.0,13.0,28,0.00,,,0.00,4.000000,,2013-05-21 04:23:00,
2013-05-20 21:33:00,60.0,27.0,-100.00,South,186,5.0,13.0,28,0.00,,,0.00,4.000000,,2013-05-21 04:33:00,
2013-05-20 21:42:00,60.0,27.0,-100.00,South,186,5.0,13.0,28,0.00,,,0.00,4.000000,,2013-05-21 04:42:00,
2013-05-20 22:12:00,58.0,27.0,-100.00,South,184,4.0,10.0,30,0.00,,,0.00,0.000000,,2013-05-21 05:12:00,
2013-05-20 22:21:00,58.0,27.0,-100.00,South,184,4.0,10.0,30,0.00,,,0.00,0.000000,,2013-05-21 05:21:00,
2013-05-20 22:32:00,58.0,27.0,-100.00,South,184,4.0,10.0,30,0.00,,,0.00,0.000000,,2013-05-21 05:32:00,
2013-05-20 22:42:00,58.0,27.0,-100.00,South,184,4.0,10.0,30,0.00,,,0.00,0.000000,,2013-05-21 05:42:00,
2013-05-20 23:12:00,54.0,28.0,-100.00,SSE,152,4.0,11.0,37,0.00,,,0.00,0.000000,,2013-05-21 06:12:00,
2013-05-20 23:21:00,54.0,28.0,-100.00,SSE,152,4.0,11.0,37,0.00,,,0.00,0.000000,,2013-05-21 06:21:00,
2013-05-20 23:32:00,54.0,28.0,-100.00,SSE,152,4.0,11.0,37,0.00,,,0.00,0.000000,,2013-05-21 06:32:00,
2013-05-20 23:41:00,54.0,28.0,-100.00,SSE,152,4.0,11.0,37,0.00,,,0.00,0.000000,,2013-05-21 06:41:00,